CZ-2D DEB, 31409

Orbit data source: Space-Track

CZ-2D DEB, 31409 is space debris in SSO originally from a launch on Tue, 05 Jul 2005 UTC launched from the Jiuquan Satellite Launch Center, China (JSC). Debris objects in space refer to the collection of defunct objects orbiting the Earth. Examples of debris include non-operational satellites, rocket bodies, and fragments generated from explosions, collisions, or faulty payload assembly.

Loading next visibility...
Identifier
31409, 2005-024J
Orbit
SSO
Country
Flag of CNCN / PRC
Related business
Manufacturer
Unknown
Mission
Spacecraft
Bus & Motor
Unknown
Mass
Unknown
Launch date (UTC)
2005-07-05 (20 years ago)
Launch vehicle
Unknown
Launch site
Jiuquan Satellite Launch Center, China (JSC)
Object type
Payload
Rocket body
Debris
Shape & HBR
Unknown shape, 0.1 m
Radar Cross Section
Small (<0.1 m²)

Expand to show TLE details & history
Last TLE update: 2 days ago

TLE from 2 days ago
0 CZ-2D DEB
1 31409U 05024J   25351.83690745  .00065973  00000-0  49188-3 0  9999
2 31409  97.1662  26.0887 0005166  80.0530 280.1317 15.72552171105481
Epoch: 2025-12-17T20:05Z
TLE epoch observation values (Epoch: 2025-12-17T20:05:08.803Z)
Latitude
-0.00004°
Longitude
-1.89902°
Altitude
354.164 km
Speed
7.697 km/s
True Right ascension
01h 44m 21s
True Declination
0° 00' 00"
Sunlit
Object was in full shadow at epoch
Visualization orbit readout
Latitude
Unknown
Longitude
Unknown
Altitude
Unknown
Speed
Unknown
Apparent Right ascension
Unknown
Apparent Declination
Unknown
Sunlit
N/A
Visualization observer readout
Local Sidereal Time
11:59:53
Azimuth
Unknown
Elevation
Unknown
Doppler factor
Unknown
Orbital elements
Apogee altitude
351.967 km
Perigee altitude
345.017 km
Semi-major axis
6,726.629 km
Eccentricity
0.00052
Inclination
97.1662°
RAAN
26.0887°
Arg. of periapsis
80.053°
True anomaly
280.07342°
Mean anomaly
280.1317°
Eccentric anomaly
280.10256°
Mean motion
3.93411 °/min
Orbital period
91.51 mins
BSTAR
0.00049188
Loading maneuver chart data...
Computing Atmospheric mass density...
Loading historical data...
Loading historical data...
Loading historical data...
Loading historical data...
Loading historical data...
Loading historical data...
Loading historical data...

Documentation

Showing up to 5 results
|